Weather History for Santander Airport, Spain

Change the Weather History Date:

Friday, November 9, 2012

  Actual Average Record
Temperature  
Mean Temperature 55 °F -  
Max Temperature 60 °F 56 °F 73 °F (1998)
Min Temperature 50 °F 46 °F 42 °F (2001)
Degree Days  
Heating Degree Days 10    
Growing Degree Days 5 (Base 50)    
Moisture  
Dew Point 53 °F    
Average Humidity 90    
Maximum Humidity 100    
Minimum Humidity 82    
Precipitation  
Precipitation 0.00 in - - ()
Sea Level Pressure  
Sea Level Pressure 29.88 in    
Wind  
Wind Speed 3 mph ()    
Max Wind Speed 9 mph    
Max Gust Speed -    
Visibility 5.8 miles    
Events Rain    
Averages and records for this station are not official NWS values.
T = Trace of Precipitation, MM = Missing Value Source: Averaged Metar Reports

Daily Weather History Graph

Daily Weather History Graph

Search for Another Location

Airport:

Trip Planner

Search our weather history database for the weather conditions in past years. The results will help you decide how hot, cold, wet, or windy it might be!

Date:

Astronomy

Nov. 09, 2012 Rise Set
Actual Time 8:01 AM CET 5:56 PM CET
Civil Twilight 7:31 AM CET 6:26 PM CET
Nautical Twilight 6:56 AM CET 7:01 PM CET
Astronomical Twilight 6:23 AM CET 7:34 PM CET
Moon 2:36 AM CET (11/9) 3:09 PM CET (11/9)
Length of Visible Light 10h 55m
Length of Day
9h 55m
Waning Crescent, 25% of the Moon is Illuminated
Nov 9
Waning Crescent
Nov 13
New
Nov 20
First Quarter
Nov 28
Full
Dec 6
Last Quarter

Hourly Weather History & Observations

Time (CET) Temp. Dew Point Humidity Pressure Visibility Wind Dir Wind Speed Gust Speed Precip Events Conditions
5:30 AM 50.0 °F 50.0 °F 100% 29.92 in 5.6 mi Calm Calm - N/A   Scattered Clouds
6:00 AM 51.8 °F 50.0 °F 94% 29.92 in 5.0 mi Calm Calm - N/A   Partly Cloudy
6:30 AM 51.8 °F 50.0 °F 94% 29.89 in 5.0 mi SSE 2.3 mph - N/A   Partly Cloudy
7:00 AM 51.8 °F 50.0 °F 94% 29.89 in 5.0 mi Calm Calm - N/A   Scattered Clouds
7:30 AM 50.0 °F 50.0 °F 100% 29.89 in 5.0 mi Calm Calm - N/A   Scattered Clouds
8:00 AM 50.0 °F 50.0 °F 100% 29.92 in 4.3 mi Calm Calm - N/A   Scattered Clouds
8:30 AM 51.8 °F 51.8 °F 100% 29.92 in 4.3 mi SSE 1.2 mph - N/A   Mostly Cloudy
9:00 AM 51.8 °F 51.8 °F 100% 29.92 in 4.3 mi Calm Calm - N/A   Scattered Clouds
9:30 AM 53.6 °F 51.8 °F 94% 29.92 in 4.3 mi Calm Calm - N/A   Partly Cloudy
10:30 AM 55.4 °F 53.6 °F 94% 29.92 in 6.2 mi Calm Calm - N/A   Scattered Clouds
11:00 AM 57.2 °F 55.4 °F 94% 29.89 in 6.2 mi Calm Calm - N/A   Partly Cloudy
11:30 AM 59.0 °F 55.4 °F 88% 29.89 in 6.2 mi Calm Calm - N/A   Partly Cloudy
12:00 PM 59.0 °F 53.6 °F 82% 29.89 in 6.2 mi Calm Calm - N/A   Partly Cloudy
12:30 PM 60.8 °F 55.4 °F 82% 29.89 in 6.2 mi WNW 5.8 mph - N/A   Partly Cloudy
1:00 PM 59.0 °F 55.4 °F 88% 29.89 in 6.2 mi WNW 9.2 mph - N/A   Partly Cloudy
1:30 PM 60.8 °F 55.4 °F 82% 29.89 in 6.2 mi WNW 9.2 mph - N/A   Scattered Clouds
2:00 PM 59.0 °F 57.2 °F 94% 29.89 in 6.2 mi West 9.2 mph - N/A Rain Light Rain
2:30 PM 59.0 °F 55.4 °F 88% 29.86 in 6.2 mi West 9.2 mph - N/A Rain Light Rain
3:00 PM 59.0 °F 55.4 °F 88% 29.86 in 6.2 mi West 9.2 mph - N/A Rain Light Rain
3:30 PM 59.0 °F 55.4 °F 88% 29.86 in 6.2 mi West 8.1 mph - N/A   Mostly Cloudy
4:00 PM 59.0 °F 55.4 °F 88% 29.86 in 6.2 mi WNW 9.2 mph - N/A   Mostly Cloudy
4:30 PM 59.0 °F 55.4 °F 88% 29.86 in 6.2 mi West 8.1 mph - N/A   Mostly Cloudy
5:00 PM 59.0 °F 53.6 °F 82% 29.86 in 6.2 mi WSW 4.6 mph - N/A   Mostly Cloudy
5:30 PM 59.0 °F 53.6 °F 82% 29.86 in 6.2 mi WSW 2.3 mph - N/A   Mostly Cloudy
6:00 PM 59.0 °F 53.6 °F 82% 29.86 in 6.2 mi WSW 3.5 mph - N/A   Mostly Cloudy
6:30 PM 57.2 °F 53.6 °F 88% 29.86 in 6.2 mi SSW 3.5 mph - N/A   Mostly Cloudy
7:00 PM 57.2 °F 53.6 °F 88% 29.86 in 5.6 mi SW 5.8 mph - N/A Rain Light Rain
7:30 PM 57.2 °F 53.6 °F 88% 29.86 in 6.2 mi SW 4.6 mph - N/A Rain Light Rain
8:00 PM 57.2 °F 53.6 °F 88% 29.86 in 6.2 mi SSW 6.9 mph - N/A   Mostly Cloudy
8:30 PM 57.2 °F 53.6 °F 88% 29.86 in 6.2 mi SW 5.8 mph - N/A   Mostly Cloudy
9:00 PM 57.2 °F 53.6 °F 88% 29.86 in 6.2 mi SSW 4.6 mph - N/A   Mostly Cloudy
9:30 PM 57.2 °F 53.6 °F 88% 29.86 in 6.2 mi SSW 3.5 mph - N/A   Mostly Cloudy
10:00 PM 55.4 °F 53.6 °F 94% 29.86 in 6.2 mi SW 4.6 mph - N/A Rain Light Rain
10:30 PM 55.4 °F 53.6 °F 94% 29.83 in 6.2 mi Variable 2.3 mph - N/A   Mostly Cloudy
11:00 PM 57.2 °F 53.6 °F 88% 29.83 in 6.2 mi SW 4.6 mph - N/A   Mostly Cloudy